Regional Weather Roundup
Issued by NWS

Home | Current Version | Previous Version | Text Only | Print | Product List | Glossary On
Versions: 1 2 3 4 5 6 7 8 9 10 11 12 13 14 15 16 17 18 19 20 21 22 23 24 25 26 27 28 29 30 31 32 33 34 35 36 37 38 39 40 41 42 43 44 45 46 47 48 49 50
000
ASUS44 KOUN 262310
RWROK

WEATHER ROUNDUP FOR OKLAHOMA
NATIONAL WEATHER SERVICE NORMAN OK
600 PM CDT WED APR 26 2017

NOTE: "FAIR" INDICATES FEW OR NO CLOUDS BELOW 12,000 FEET WITH NO
      SIGNIFICANT WEATHER AND/OR OBSTRUCTIONS TO VISIBILITY.

OKZ001>007-009>012-014-015-017-270000-
NORTHWEST OKLAHOMA AND THE PANHANDLE

CITY           SKY/WX    TMP DP  RH WIND       PRES   REMARKS
GAGE           MOSUNNY   62  33  33 NW21      29.72S
GUYMON         SUNNY     62  32  32 N17G23    29.71F
ENID/WOODRING  PTSUNNY   57  41  54 NW12G18   29.68R
$$

OKZ016-021>023-033>039-044-045-270000-
SOUTHWEST OKLAHOMA

CITY           SKY/WX    TMP DP  RH WIND       PRES   REMARKS
LAWTON/REGL    MOSUNNY   63  39  41 NW15G24   29.71F
LAWTON/FT SILL MOSUNNY   62  42  48 W15G22    29.70S
FREDERICK      SUNNY     66  36  32 NW21      29.69F
CLINTON        SUNNY     61  35  37 NW20G25   29.73S
HOBART         SUNNY     64  36  35 NW20      29.73S
ALTUS AFB      SUNNY     64  34  33 N15G24    29.72S
$$

OKZ018>020-024>031-270000-
CENTRAL OKLAHOMA

CITY           SKY/WX    TMP DP  RH WIND       PRES   REMARKS
OKLAHOMA CITY  PTSUNNY   57  40  52 NW16G29   29.69R
OKC/WILEY POST CLOUDY    58  41  53 NW15G22   29.70R
OKC/TINKER AFB CLOUDY    55  40  58 NW16      29.68R
STILLWATER     CLOUDY    54  40  59 NW8       29.68S
GUTHRIE        CLOUDY    55  40  56 NW9       29.70R
$$

OKZ008-013-054>072-270000-
NORTHEAST OKLAHOMA

CITY           SKY/WX    TMP DP  RH WIND       PRES   REMARKS
TULSA          MOSUNNY   54  44  69 NW12      29.64S
TULSA/JONES    PTSUNNY   54  41  61 VRB6      29.66R
PONCA CITY     CLOUDY    55  38  52 NW12      29.66S
BARTLESVILLE   CLOUDY    54  42  64 VRB3      29.65F
MUSKOGEE       CLOUDY    52  46  80 NW13      29.66R
$$

OKZ032-040>043-046>053-073>077-270000-
SOUTH CENTRAL/SOUTHEAST OKLAHOMA

CITY           SKY/WX    TMP DP  RH WIND       PRES   REMARKS
ARDMORE/DWNTWN CLOUDY    55  43  62 N7        29.70R
MCALESTER      CLOUDY    55  47  74 NW10      29.65S
$$




USA.gov is the U.S. government's official web portal to all federal, state and local government web resources and services.